GW6717 Weather Reports


Display with metric or nautical units.
time (UTC)temp
F
wind
direction
speed
MPH
gust
MPH
rain 1hr
in
rain 24hr
in
rain mn
in
humidity
%
barometer
mb
20260504034423 47 22 0.0 0.0 0.00 0.00 0.00 62 1013.3
20260504033920 47 22 0.0 0.0 0.00 0.00 0.00 62 1013.2
20260504033418 48 22 0.0 0.0 0.00 0.00 0.00 61 1013.4
20260504032914 48 23 0.0 0.0 0.00 0.00 0.00 61 1013.4
20260504032411 48 23 0.0 0.0 0.00 0.00 0.00 61 1013.3
20260504031908 48 22 0.0 0.0 0.00 0.00 0.00 59 1013.4
20260504031405 49 22 0.0 0.0 0.00 0.00 0.00 59 1013.6
20260504030901 49 21 0.0 1.0 0.00 0.00 0.00 57 1013.4
20260504030359 49 20 0.0 0.0 0.00 0.00 0.00 56 1013.6
20260504025854 50 20 0.0 0.0 0.00 0.00 0.00 56 1013.5
20260504025352 50 20 0.0 1.0 0.00 0.00 0.00 57 1013.4
20260504024848 50 17 0.0 0.0 0.00 0.00 0.00 56 1013.5
20260504024345 50 23 0.0 0.0 0.00 0.00 0.00 54 1013.5
20260504023842 50 24 0.0 0.0 0.00 0.00 0.00 56 1013.6
20260504023339 50 20 0.0 0.0 0.00 0.00 0.00 53 1013.6
20260504022834 51 19 0.0 0.0 0.00 0.00 0.00 53 1013.6
20260504022331 51 19 0.0 0.0 0.00 0.00 0.00 52 1013.6
20260504021828 51 12 0.0 0.0 0.00 0.00 0.00 50 1013.7
20260504021325 51 21 0.0 0.0 0.00 0.00 0.00 53 1013.6
20260504020822 51 18 0.0 1.0 0.00 0.00 0.00 54 1013.8
20260504020319 51 21 0.0 0.0 0.00 0.00 0.00 53 1013.9
20260504015815 51 24 0.0 0.0 0.00 0.00 0.00 53 1013.6
20260504015311 51 25 1.0 1.0 0.00 0.00 0.00 51 1013.7
20260504014808 51 27 1.0 1.0 0.00 0.00 0.00 50 1013.6
20260504014303 52 24 0.0 0.0 0.00 0.00 0.00 53 1013.5
20260504013801 52 13 0.0 0.0 0.00 0.00 0.00 50 1013.6
20260504013259 53 23 0.0 0.0 0.00 0.00 0.00 51 1013.5
20260504012755 53 20 0.0 0.0 0.00 0.00 0.00 47 1013.5
20260504012253 53 18 0.0 0.0 0.00 0.00 0.00 49 1013.5
20260504011750 53 26 0.0 0.0 0.00 0.00 0.00 49 1013.4
20260504011246 53 14 0.0 0.0 0.00 0.00 0.00 46 1013.5
20260504010743 54 18 0.0 0.0 0.00 0.00 0.00 45 1013.3
20260504010238 54 19 0.0 0.0 0.00 0.00 0.00 45 1013.3
20260504005735 55 9 0.0 0.0 0.00 0.00 0.00 45 1013.4
20260504005232 55 213 1.0 2.0 0.00 0.00 0.00 44 1013.4
20260504004730 55 334 1.0 1.0 0.00 0.00 0.00 43 1013.2
20260504004227 55 327 1.0 2.0 0.00 0.00 0.00 44 1013.3
20260504003723 55 165 2.0 2.0 0.00 0.00 0.00 43 1013.4
20260504003220 55 23 0.0 1.0 0.00 0.00 0.00 43 1013.2
20260504002717 56 11 0.0 0.0 0.00 0.00 0.00 44 1013.1
20260504002214 56 330 1.0 1.0 0.00 0.00 0.00 41 1013.2
20260504001712 56 354 1.0 1.0 0.00 0.00 0.00 40 1013.0
20260504001209 56 328 1.0 1.0 0.00 0.00 0.00 41 1013.2
20260504000705 56 336 1.0 1.0 0.00 0.00 0.00 42 1013.1
20260504000204 56 109 0.0 0.0 0.00 0.00 0.00 42 1013.2
20260503235700 56 352 1.0 1.0 0.00 0.00 0.00 41 1013.3
20260503235157 57 337 0.0 1.0 0.00 0.00 0.00 41 1013.2
20260503234655 57 355 1.0 3.0 0.00 0.00 0.00 41 1013.3
20260503234153 57 256 1.0 2.0 0.00 0.00 0.00 41 1013.3
20260503233649 57 197 2.0 3.0 0.00 0.00 0.00 40 1013.2
20260503233145 57 200 2.0 3.0 0.00 0.00 0.00 39 1013.3
20260503232642 57 13 1.0 2.0 0.00 0.00 0.00 41 1013.2
20260503232140 57 102 1.0 2.0 0.00 0.00 0.00 39 1013.4
20260503231638 57 332 1.0 2.0 0.00 0.00 0.00 41 1013.4
20260503231134 57 213 1.0 2.0 0.00 0.00 0.00 42 1013.2
20260503230631 58 275 2.0 2.0 0.00 0.00 0.00 40 1013.4
20260503230128 58 28 2.0 3.0 0.00 0.00 0.00 43 1013.4
20260503225626 58 142 1.0 2.0 0.00 0.00 0.00 38 1013.2
20260503225125 58 197 1.0 3.0 0.00 0.00 0.00 38 1013.2
20260503224622 58 48 2.0 3.0 0.00 0.00 0.00 39 1013.4
20260503224120 58 246 2.0 3.0 0.00 0.00 0.00 39 1013.4
20260503223618 58 344 2.0 2.0 0.00 0.00 0.00 40 1013.5
20260503223113 58 224 2.0 2.0 0.00 0.00 0.00 41 1013.5
20260503222612 58 49 3.0 3.0 0.00 0.00 0.00 38 1013.6
20260503222109 59 308 2.0 4.0 0.00 0.00 0.00 40 1013.4
20260503221607 59 197 2.0 3.0 0.00 0.00 0.00 39 1013.4
20260503221105 59 319 1.0 2.0 0.00 0.00 0.00 37 1013.5
20260503220601 59 215 2.0 2.0 0.00 0.00 0.00 37 1013.4
20260503220058 59 207 3.0 3.0 0.00 0.00 0.00 37 1013.6
20260503215555 59 214 4.0 4.0 0.00 0.00 0.00 38 1013.5
20260503215052 59 230 5.0 6.0 0.00 0.00 0.00 37 1013.6
20260503214550 59 190 5.0 6.0 0.00 0.00 0.00 36 1013.7
20260503214046 60 241 2.0 3.0 0.00 0.00 0.00 38 1013.3
20260503213544 59 22 1.0 2.0 0.00 0.00 0.00 38 1013.3
20260503213041 59 289 2.0 3.0 0.00 0.00 0.00 38 1013.2
20260503212538 59 24 2.0 3.0 0.00 0.00 0.00 38 1013.4
20260503212036 60 33 3.0 6.0 0.00 0.00 0.00 37 1013.4
20260503211533 59 162 3.0 7.0 0.00 0.00 0.00 38 1013.3
20260503211028 59 189 3.0 7.0 0.00 0.00 0.00 37 1013.4
20260503210525 60 15 2.0 3.0 0.00 0.00 0.00 40 1013.4
20260503210021 59 321 2.0 3.0 0.00 0.00 0.00 41 1013.4
20260503205518 59 12 3.0 4.0 0.00 0.00 0.00 38 1013.7
20260503205014 60 343 1.0 1.0 0.00 0.00 0.00 38 1013.7
20260503204511 61 300 1.0 2.0 0.00 0.00 0.00 39 1013.6
20260503204008 60 287 2.0 3.0 0.00 0.00 0.00 38 1013.7
20260503203506 60 198 2.0 3.0 0.00 0.00 0.00 37 1013.7
20260503203002 58 200 4.0 7.0 0.00 0.00 0.00 39 1014.0
20260503202500 58 198 4.0 8.0 0.00 0.00 0.00 38 1014.0
20260503201958 60 210 2.0 4.0 0.00 0.00 0.00 38 1013.9
20260503201456 60 31 1.0 1.0 0.00 0.00 0.00 41 1014.0
20260503200953 59 359 0.0 1.0 0.00 0.00 0.00 43 1014.1
20260503200449 59 286 3.0 3.0 0.00 0.00 0.00 39 1014.1
20260503195946 61 118 2.0 3.0 0.00 0.00 0.00 41 1014.1
20260503195443 61 8 1.0 1.0 0.00 0.00 0.00 37 1014.0
20260503194939 62 291 1.0 1.0 0.00 0.00 0.00 40 1014.3
20260503194437 61 207 3.0 4.0 0.00 0.00 0.00 36 1014.4
20260503193932 60 0 1.0 2.0 0.00 0.00 0.00 39 1014.5
20260503193428 60 9 3.0 6.0 0.00 0.00 0.00 38 1014.4
20260503192923 59 249 2.0 2.0 0.00 0.00 0.00 37 1014.5
20260503192420 61 105 2.0 4.0 0.00 0.00 0.00 38 1014.5
20260503191916 61 208 4.0 6.0 0.00 0.00 0.00 35 1014.7
20260503191414 62 187 4.0 6.0 0.00 0.00 0.00 36 1014.8
20260503190909 60 151 4.0 4.0 0.00 0.00 0.00 35 1014.9
20260503190407 60 206 2.0 6.0 0.00 0.00 0.00 37 1015.0
20260503185903 58 210 4.0 7.0 0.00 0.00 0.00 40 1015.2
20260503185400 60 231 1.0 4.0 0.00 0.00 0.00 37 1015.1
20260503184859 60 350 0.0 0.0 0.00 0.00 0.00 35 1015.2
20260503184356 60 288 2.0 3.0 0.00 0.00 0.00 40 1015.0
20260503183852 60 232 2.0 4.0 0.00 0.00 0.00 41 1015.2
20260503183349 59 200 4.0 4.0 0.00 0.00 0.00 37 1015.5
20260503182847 60 339 0.0 1.0 0.00 0.00 0.00 38 1015.6
20260503182345 61 211 3.0 3.0 0.00 0.00 0.00 40 1015.4
20260503181842 60 322 2.0 2.0 0.00 0.00 0.00 36 1015.6
20260503181339 61 348 2.0 3.0 0.00 0.00 0.00 36 1015.6
20260503180836 61 356 1.0 1.0 0.00 0.00 0.00 36 1015.7
20260503180334 59 219 2.0 3.0 0.00 0.00 0.00 36 1015.6
20260503175830 58 80 1.0 3.0 0.00 0.00 0.00 39 1015.8
20260503175328 59 204 4.0 4.0 0.00 0.00 0.00 40 1015.8
20260503174828 60 281 1.0 1.0 0.00 0.00 0.00 38 1015.9
20260503174327 59 15 1.0 1.0 0.00 0.00 0.00 40 1016.0
20260503173822 58 212 2.0 3.0 0.00 0.00 0.00 40 1016.1
20260503173319 60 13 2.0 4.0 0.00 0.00 0.00 43 1016.0
20260503172816 58 64 1.0 2.0 0.00 0.00 0.00 43 1016.1
20260503172314 59 205 5.0 6.0 0.00 0.00 0.00 37 1016.1
20260503171809 59 309 1.0 1.0 0.00 0.00 0.00 34 1016.1
20260503171306 58 15 0.0 1.0 0.00 0.00 0.00 43 1016.3
20260503170804 57 6 1.0 1.0 0.00 0.00 0.00 44 1016.4
20260503170300 57 217 1.0 4.0 0.00 0.00 0.00 40 1016.3
20260503150652 52 217 2.0 3.0 0.00 0.00 0.00 46 1017.3
20260503150148 51 230 2.0 2.0 0.00 0.00 0.00 48 1017.3
20260503140113 47 222 3.0 3.0 0.00 0.00 0.00 62 1017.7
20260503131042 43 327 1.0 2.0 0.00 0.00 0.00 73 1017.7
20260503130539 42 334 0.0 0.0 0.00 0.00 0.00 73 1017.8
20260503110435 34 20 0.0 0.0 0.00 0.00 0.00 92 1017.1
20260503090326 35 19 0.0 0.0 0.00 0.00 0.00 90 1016.2
20260503081254 35 19 0.0 0.0 0.00 0.00 0.00 87 1016.2
20260503080749 36 19 0.0 0.0 0.00 0.00 0.00 87 1016.2
20260503080247 36 20 0.0 0.0 0.00 0.00 0.00 87 1016.2
20260503072724 36 18 0.0 0.0 0.00 0.00 0.00 89 1016.1
20260503072220 36 18 0.0 0.0 0.00 0.00 0.00 89 1016.1
20260503071717 36 23 0.0 0.0 0.00 0.00 0.00 89 1016.1
20260503071214 36 21 0.0 0.0 0.00 0.00 0.00 89 1016.1
20260503070710 36 21 0.0 0.0 0.00 0.00 0.00 89 1016.1
20260503070209 36 21 0.0 0.0 0.00 0.00 0.00 89 1016.1
20260503060139 36 19 0.0 0.0 0.00 0.00 0.00 89 1016.1
20260503054626 36 18 0.0 0.0 0.00 0.00 0.00 89 1016.0
20260503054123 36 19 0.0 0.0 0.00 0.00 0.00 89 1016.1
20260503053621 36 16 0.0 0.0 0.00 0.00 0.00 88 1016.1
20260503053119 36 17 0.0 0.0 0.00 0.00 0.00 88 1016.0
20260503052615 36 13 0.0 0.0 0.00 0.00 0.00 88 1016.4
20260503052112 36 13 0.0 0.0 0.00 0.00 0.00 88 1016.3
20260503051607 36 13 0.0 0.0 0.00 0.00 0.00 88 1016.4
20260503051105 36 13 0.0 0.0 0.00 0.00 0.00 88 1016.3
20260503050601 36 13 0.0 0.0 0.00 0.00 0.00 87 1016.2
20260503050058 36 14 0.0 0.0 0.00 0.00 0.00 87 1016.4
20260503045555 36 14 0.0 0.0 0.00 0.00 0.00 87 1016.3
20260503045052 36 21 0.0 0.0 0.00 0.00 0.00 86 1016.4
20260503044549 36 21 0.0 0.0 0.00 0.00 0.00 86 1016.3
20260503044047 37 22 0.0 0.0 0.00 0.00 0.00 86 1016.4
20260503043543 37 21 0.0 0.0 0.00 0.00 0.00 85 1016.4
20260503043040 37 18 0.0 0.0 0.00 0.00 0.00 84 1016.5
20260503042537 37 18 0.0 0.0 0.00 0.00 0.00 84 1016.4
20260503042032 37 18 0.0 0.0 0.00 0.00 0.00 83 1016.3
20260503041529 37 18 0.0 0.0 0.00 0.00 0.00 82 1016.5
20260503041028 37 18 0.0 0.0 0.00 0.00 0.00 81 1016.4
20260503040525 37 18 0.0 0.0 0.00 0.00 0.00 81 1016.5
20260503040022 37 17 0.0 0.0 0.00 0.01 0.01 81 1016.6
20260503035519 38 18 0.0 0.0 0.00 0.01 0.01 80 1016.4
20260503035016 38 17 0.0 0.0 0.00 0.01 0.01 79 1016.4